Weather History for Newport, VT

Change the Weather History Date:

Thursday, January 10, 2013

  Actual Average Record
Temperature  
Mean Temperature 27 °F -  
Max Temperature 36 °F 23 °F 44 °F (1972)
Min Temperature 18 °F 4 °F -30 °F (1960)
Degree Days  
Heating Degree Days 38    
Moisture  
Dew Point 23 °F    
Average Humidity 68    
Maximum Humidity 82    
Minimum Humidity 61    
Precipitation  
Precipitation 0.00 in - - ()
Sea Level Pressure  
Sea Level Pressure 30.34 in    
Wind  
Wind Speed 14 mph (WNW)    
Max Wind Speed 24 mph    
Max Gust Speed 36 mph    
Visibility 10 miles    
Events      
Averages and records for this station are not official NWS values.
T = Trace of Precipitation, MM = Missing Value Source: NWS Daily Summary

Daily Weather History Graph

Daily Weather History Graph

Search for Another Location

Airport:

Trip Planner

Search our weather history database for the weather conditions in past years. The results will help you decide how hot, cold, wet, or windy it might be!

Date:

Astronomy

Jan. 10, 2013 Rise Set
Actual Time 7:25 AM EST 4:28 PM EST
Civil Twilight 6:52 AM EST 5:01 PM EST
Nautical Twilight 6:15 AM EST 5:37 PM EST
Astronomical Twilight 5:40 AM EST 6:13 PM EST
Moon 6:02 AM EST (1/10) 3:33 PM EST (1/10)
Length of Visible Light 10h 08m
Length of Day
9h 02m
Waning Crescent, 2% of the Moon is Illuminated
Jan 10
Waning Crescent
Jan 11
New
Jan 18
First Quarter
Jan 26
Full
Feb 3
Last Quarter

Hourly Weather History & Observations

Time (EST) Temp. Windchill Dew Point Humidity Pressure Visibility Wind Dir Wind Speed Gust Speed Precip Events Conditions
12:15 AM 36.5 °F 26.3 °F 26.4 °F 67% 29.93 in 10.0 mi West 18.4 mph 27.6 mph N/A   Overcast
12:35 AM 36.1 °F 27.7 °F 26.1 °F 67% 29.95 in 10.0 mi West 12.7 mph 29.9 mph N/A   Overcast
12:55 AM 35.8 °F 24.5 °F 26.6 °F 69% 29.96 in 10.0 mi West 21.9 mph 29.9 mph N/A   Overcast
1:15 AM 35.6 °F 25.5 °F 26.4 °F 69% 29.98 in 10.0 mi WNW 17.3 mph 28.8 mph N/A   Overcast
1:35 AM 35.8 °F 25.1 °F 26.1 °F 68% 29.99 in 10.0 mi West 19.6 mph 31.1 mph N/A   Overcast
1:55 AM 35.6 °F 24.2 °F 26.1 °F 68% 30.01 in 10.0 mi West 21.9 mph 32.2 mph N/A   Overcast
3:15 AM 34.9 °F 24.6 °F 25.2 °F 68% 30.07 in 10.0 mi WNW 17.3 mph 33.4 mph N/A   Overcast
3:35 AM 34.7 °F 23.1 °F 24.6 °F 67% 30.08 in 10.0 mi West 21.9 mph 35.7 mph N/A   Overcast
3:55 AM 34.7 °F 22.8 °F 24.8 °F 67% 30.10 in 10.0 mi West 23.0 mph 32.2 mph N/A   Overcast
4:15 AM 34.7 °F 23.7 °F 24.3 °F 66% 30.12 in 10.0 mi West 19.6 mph 32.2 mph N/A   Overcast
4:35 AM 34.2 °F 24.0 °F 23.9 °F 66% 30.13 in 10.0 mi West 16.1 mph 27.6 mph N/A   Overcast
4:55 AM 34.2 °F 23.3 °F 24.4 °F 68% 30.14 in 10.0 mi West 18.4 mph 35.7 mph N/A   Overcast
5:15 AM 34.3 °F 23.2 °F 24.3 °F 67% 30.15 in 10.0 mi West 19.6 mph 32.2 mph N/A   Overcast
5:35 AM 34.7 °F 24.0 °F 23.9 °F 65% 30.17 in 10.0 mi West 18.4 mph 31.1 mph N/A   Overcast
5:55 AM 34.5 °F 23.8 °F 23.5 °F 64% 30.18 in 10.0 mi West 18.4 mph 33.4 mph N/A   Overcast
6:15 AM 34.3 °F 23.5 °F 23.4 °F 64% 30.19 in 10.0 mi West 18.4 mph 29.9 mph N/A   Overcast
6:35 AM 34.3 °F 24.2 °F 23.5 °F 65% 30.20 in 10.0 mi West 16.1 mph 33.4 mph N/A   Overcast
6:55 AM 34.2 °F 23.3 °F 23.4 °F 65% 30.21 in 10.0 mi West 18.4 mph 27.6 mph N/A   Overcast
7:15 AM 34.0 °F 21.5 °F 23.7 °F 66% 30.22 in 10.0 mi West 24.2 mph 28.8 mph N/A   Overcast
7:35 AM 34.0 °F 24.6 °F 23.7 °F 66% 30.24 in 10.0 mi WNW 13.8 mph 21.9 mph N/A   Overcast
7:55 AM 34.0 °F 25.0 °F 23.9 °F 67% 30.25 in 10.0 mi West 12.7 mph 23.0 mph N/A   Overcast
8:35 AM 34.0 °F 24.6 °F 23.4 °F 65% 30.29 in 10.0 mi West 13.8 mph 23.0 mph N/A   Overcast
8:55 AM 34.0 °F 25.5 °F 23.4 °F 65% 30.31 in 10.0 mi WNW 11.5 mph 23.0 mph N/A   Overcast
9:15 AM 34.0 °F 26.6 °F 23.2 °F 65% 30.32 in 10.0 mi West 9.2 mph 19.6 mph N/A   Overcast
9:35 AM 34.0 °F 26.6 °F 23.4 °F 65% 30.33 in 10.0 mi WNW 9.2 mph - N/A   Overcast
9:55 AM 34.0 °F 26.6 °F 23.4 °F 65% 30.34 in 10.0 mi WNW 9.2 mph 16.1 mph N/A   Overcast
10:15 AM 34.2 °F 29.0 °F 23.2 °F 64% 30.35 in 10.0 mi WNW 5.8 mph - N/A   Overcast
10:35 AM 34.0 °F 28.0 °F 23.4 °F 65% 30.36 in 10.0 mi WNW 6.9 mph - N/A   Overcast
10:55 AM 34.2 °F 26.2 °F 23.2 °F 64% 30.37 in 10.0 mi WNW 10.4 mph 17.3 mph N/A   Overcast
11:15 AM 34.2 °F 25.7 °F 23.0 °F 64% 30.36 in 10.0 mi WNW 11.5 mph 21.9 mph N/A   Overcast
11:35 AM 35.2 °F 26.6 °F 23.0 °F 61% 30.36 in 10.0 mi WNW 12.7 mph 19.6 mph N/A   Overcast
11:55 AM 34.9 °F 23.9 °F 23.2 °F 62% 30.36 in 10.0 mi WNW 19.6 mph 26.5 mph N/A   Overcast
12:15 PM 34.7 °F 24.0 °F 23.4 °F 63% 30.37 in 10.0 mi West 18.4 mph 25.3 mph N/A   Overcast
12:55 PM 34.9 °F 24.2 °F 23.4 °F 63% 30.37 in 10.0 mi WNW 18.4 mph 26.5 mph N/A   Scattered Clouds
1:15 PM 35.2 °F 25.0 °F 23.7 °F 63% 30.38 in 10.0 mi WNW 17.3 mph 23.0 mph N/A   Mostly Cloudy
1:35 PM 34.9 °F 26.2 °F 23.5 °F 63% 30.38 in 10.0 mi WNW 12.7 mph 23.0 mph N/A   Scattered Clouds
1:55 PM 35.2 °F 27.1 °F 23.2 °F 62% 30.40 in 10.0 mi WNW 11.5 mph 23.0 mph N/A   Mostly Cloudy
2:15 PM 34.5 °F 25.7 °F 23.4 °F 64% 30.42 in 10.0 mi WNW 12.7 mph 21.9 mph N/A   Overcast
2:35 PM 34.0 °F 25.5 °F 23.5 °F 66% 30.43 in 10.0 mi WNW 11.5 mph 20.7 mph N/A   Overcast
3:15 PM 34.0 °F 25.0 °F 23.0 °F 64% 30.46 in 10.0 mi NNW 12.7 mph 18.4 mph N/A   Overcast
3:35 PM 33.4 °F 26.6 °F 23.4 °F 67% 30.46 in 10.0 mi NW 8.1 mph - N/A   Mostly Cloudy
3:55 PM 32.9 °F 29.8 °F 23.0 °F 67% 30.47 in 10.0 mi NW 3.5 mph - N/A   Mostly Cloudy
4:15 PM 32.9 °F - 23.0 °F 67% 30.49 in 10.0 mi Calm Calm - N/A   Overcast
4:35 PM 32.5 °F 28.1 °F 23.2 °F 68% 30.49 in 10.0 mi WNW 4.6 mph - N/A   Overcast
4:55 PM 32.4 °F 25.3 °F 23.0 °F 68% 30.50 in 10.0 mi WNW 8.1 mph 17.3 mph N/A   Overcast
5:15 PM 32.0 °F 24.8 °F 23.2 °F 70% 30.50 in 10.0 mi NW 8.1 mph - N/A   Overcast
5:35 PM 31.8 °F 25.4 °F 23.0 °F 70% 30.51 in 10.0 mi NNW 6.9 mph - N/A   Overcast
5:55 PM 32.0 °F 26.4 °F 23.4 °F 70% 30.51 in 10.0 mi NW 5.8 mph - N/A   Overcast
6:15 PM 32.0 °F 26.4 °F 23.4 °F 70% 30.52 in 10.0 mi WNW 5.8 mph - N/A   Overcast
6:35 PM 32.0 °F 26.4 °F 23.4 °F 70% 30.51 in 10.0 mi NNW 5.8 mph - N/A   Overcast
6:55 PM 32.0 °F 28.7 °F 23.0 °F 69% 30.52 in 10.0 mi NNW 3.5 mph - N/A   Overcast
7:15 PM 32.0 °F 25.6 °F 23.0 °F 69% 30.52 in 10.0 mi NW 6.9 mph - N/A   Overcast
7:35 PM 31.8 °F 23.3 °F 23.9 °F 73% 30.52 in 10.0 mi North 10.4 mph - N/A   Overcast
7:55 PM 31.1 °F 23.7 °F 21.9 °F 69% 30.52 in 10.0 mi North 8.1 mph - N/A   Overcast
8:15 PM 29.5 °F 21.8 °F 20.3 °F 69% 30.52 in 10.0 mi North 8.1 mph - N/A   Overcast
8:35 PM 28.2 °F 21.0 °F 19.4 °F 70% 30.52 in 10.0 mi North 6.9 mph - N/A   Overcast
8:55 PM 25.7 °F 17.1 °F 17.6 °F 71% 30.52 in 10.0 mi North 8.1 mph - N/A   Scattered Clouds
9:15 PM 25.2 °F 18.3 °F 17.6 °F 73% 30.52 in 10.0 mi North 5.8 mph - N/A   Clear
9:35 PM 27.1 °F - 18.9 °F 71% 30.53 in 10.0 mi Calm Calm - N/A   Clear
9:55 PM 27.0 °F - 18.5 °F 70% 30.53 in 10.0 mi Calm Calm - N/A   Clear
10:15 PM 26.2 °F - 18.3 °F 72% 30.52 in 10.0 mi Calm Calm - N/A   Clear
10:35 PM 23.7 °F - 17.6 °F 77% 30.52 in 10.0 mi Calm Calm - N/A   Clear
10:55 PM 18.5 °F - 13.1 °F 79% 30.51 in 10.0 mi Calm Calm - N/A   Clear
11:15 PM 21.9 °F - 17.2 °F 82% 30.51 in 10.0 mi Calm Calm - N/A   Clear
11:35 PM 23.7 °F - 18.3 °F 80% 30.51 in 10.0 mi Calm Calm - N/A   Clear
11:55 PM 23.9 °F 19.5 °F 18.0 °F 78% 30.51 in 10.0 mi SSW 3.5 mph - N/A   Clear